#timestamp,LO_Frequency,Hit,StdDev 
1660622415.7,286047000.6,P
1660622435.5,286046999.8,N
1660622455.3,286047000.2,N
1660622475.2,286047000.6,N
1660622495.0,286047002.4,Y
1660622495.9,286047002.4,P
1660622515.8,286047000.0,N
1660622535.6,286047000.0,N
1660622555.4,286047000.3,N
1660622575.3,286047002.8,Y
1660622595.1,286047002.7,P
1660622615.8,286047002.7,N
1660622635.7,286046999.8,N
1660622655.5,286047002.0,N
1660622675.4,286047001.6,N
1660622695.2,286047002.1,N
1660622715.0,286047002.5,N
1660622715.9,286047002.5,N
1660622735.8,286047002.5,N
1660622755.6,286047001.9,N
1660622775.4,286047001.3,N
1660622795.3,286047003.0,Y
1660622815.1,286047001.3,P
1660622835.9,286047004.1,P
1660622855.7,286047003.9,P
1660622875.5,286047004.0,Y
1660622895.4,286047000.5,P
1660622915.2,286047002.7,N
1660622935.1,286046999.7,N
1660622936.0,286046999.7,N
1660622955.8,286047002.1,N
1660622975.6,286047002.2,N
1660622995.5,286047001.5,N
1660623015.3,286047001.7,N
1660623035.1,286047002.0,N
1660623055.9,286047002.5,N
1660623075.7,286047002.5,N
1660623095.6,286047002.6,N
1660623115.4,286047002.2,N
1660623135.2,286046999.7,N
1660623155.1,286047002.8,N
1660623156.0,286047002.8,N
1660623175.8,286047002.3,N
1660623195.6,286046999.9,N
1660623215.5,286046999.7,N
1660623235.3,286047002.6,N
1660623255.2,286046999.7,N
1660623275.9,286047001.0,N
1660623295.7,286046999.7,N
1660623315.6,286047000.0,N
1660623335.4,286047000.7,N
1660623355.2,286047000.8,N
1660623375.1,286047001.2,N
1660623376.0,286047001.2,N
1660623395.8,286047001.0,N
1660623415.7,286047001.1,N
1660623435.5,286047000.3,N
1660623455.3,286047001.0,N
1660623475.2,286046998.1,N
1660623495.0,286046999.0,N
1660623495.9,286046999.0,N
1660623515.8,286046999.3,N
1660623535.6,286046998.8,N
1660623555.4,286046998.3,N
1660623575.3,286046998.3,N
1660623595.1,286046998.3,N
1660623615.8,286046999.0,N
1660623635.7,286046997.1,N
1660623655.5,286046997.4,N
1660623675.4,286046999.6,N
1660623695.2,286046997.4,N
1660623715.0,286046997.4,N
1660623715.9,286046997.4,N
1660623735.8,286046997.3,N
1660623755.6,286046997.4,N
1660623775.4,286046997.7,N
1660623795.3,286046997.3,N
1660623815.1,286046997.1,N
1660623835.9,286046996.7,N
1660623855.7,286046997.8,N
1660623875.5,286046997.2,N
1660623895.4,286046997.2,N
1660623915.2,286046997.6,N
1660623935.0,286046997.4,N
1660623935.9,286046997.4,N
1660623955.8,286046997.8,N
1660623975.6,286046997.7,N
1660623995.5,286046997.8,N
1660624015.3,286046997.7,Y
1660624035.1,286046998.3,P
1660624055.9,286046998.7,P
1660624075.7,286046998.2,P
1660624095.6,286046998.4,Y
1660624115.4,286047001.0,P
1660624135.2,286047000.4,N
1660624155.1,286047000.9,N
1660624156.0,286047000.9,N
1660624175.8,286047000.3,N
1660624195.6,286047000.6,N
1660624215.5,286047000.6,N
1660624235.3,286047001.0,N
1660624255.2,286047000.6,N
1660624275.9,286047000.6,N
1660624295.7,286047000.9,N
1660624315.6,286047000.6,N
1660624335.4,286047000.4,N
1660624355.2,286047000.3,N
1660624375.1,286047000.3,N
1660624376.0,286047000.3,N
1660624395.8,286047000.0,N
1660624415.7,286047000.3,N
1660624435.5,286047000.5,N
1660624455.3,286047000.8,N
1660624475.2,286047001.1,N
1660624495.0,286047000.7,N
1660624495.9,286047000.7,N
1660624515.8,286046998.1,Y
1660624535.6,286046998.7,P
1660624555.4,286046999.3,N
1660624575.3,286046999.0,N
1660624595.1,286046998.4,N
1660624615.8,286046998.7,N
1660624635.7,286046998.2,N
1660624655.5,286047001.2,N
1660624675.4,286046998.9,N
1660624695.2,286046998.1,N
1660624715.0,286046998.6,N
1660624715.9,286046998.6,N
1660624735.8,286046998.5,N
1660624755.6,286046998.6,N
1660624775.4,286046998.7,N
1660624795.3,286046998.9,N
1660624815.1,286046998.7,N
1660624835.9,286046998.5,N
1660624855.7,286047001.2,N
1660624875.5,286046998.9,N
1660624895.4,286046999.0,N
1660624915.2,286046999.1,N
1660624935.1,286046999.5,N
1660624936.0,286046999.5,N
1660624955.8,286046998.7,N
1660624975.6,286046999.2,N
1660624995.5,286046997.0,Y
1660625015.3,286046998.7,P
1660625035.2,286046998.3,P
1660625055.9,286046998.5,P
1660625075.7,286047000.7,N
1660625095.6,286047000.9,N
1660625115.4,286047000.5,N
1660625135.2,286046999.9,N
1660625155.1,286046999.9,N
1660625156.0,286046999.9,N
1660625175.8,286047000.7,N
1660625195.7,286047001.1,N
1660625215.5,286047000.9,N
1660625235.3,286047000.6,N
1660625255.2,286047000.7,N
1660625275.9,286047000.3,N
1660625295.7,286047000.3,N
1660625315.6,286046999.9,N
1660625335.4,286047000.5,N
1660625355.2,286047000.5,N
1660625375.1,286047000.8,N
1660625376.0,286047000.8,N
1660625395.8,286047001.1,N
1660625415.7,286046998.5,N
1660625435.5,286046998.4,N
1660625455.3,286046998.4,N
1660625475.2,286046998.2,N
1660625495.0,286046998.5,N
1660625495.9,286046998.5,N
1660625515.7,286047001.2,N
1660625535.6,286046998.1,N
1660625555.4,286046998.1,N
1660625575.3,286046998.5,N
1660625595.1,286047000.6,N
1660625596.0,286047000.6,N
1660625615.8,286046998.3,N
1660625635.7,286046998.3,N
1660625655.5,286046998.2,N
1660625675.4,286046998.3,N
1660625695.2,286047000.8,N
1660625715.0,286047001.1,N
1660625715.9,286047001.1,N
1660625735.8,286046998.4,N
1660625755.6,286046998.4,N
1660625775.5,286046998.4,N
1660625795.3,286047000.7,N
1660625815.1,286047000.3,N
1660625835.9,286047000.6,N
1660625855.7,286046998.1,N
1660625875.5,286047000.6,N
1660625895.4,286047000.3,N
1660625915.2,286047000.2,N
1660625935.1,286047002.7,N
1660625936.0,286047002.7,N
1660625955.8,286047000.8,N
1660625975.6,286046998.1,N
1660625995.5,286046999.0,N
